Home > Weather > Hialeah > Past weeks

Flag for USA Past Weather in Hialeah, Florida, USA — Yesterday and Last 2 Weeks

Now
76 °F

Clear.


Feels Like: 76 °F
Forecast: 75 / 87 °F
Wind: 7 mph from North

Location: Opa Locka Airport

Current Time: May 30, 2016 at 3:00:54 AM

Latest Report: May 30, 2016 at 1:53 AM


Visibility: 10 mi

Pressure: 30.01 "Hg

Humidity: 85%

Dew Point: 71 °F

Location of HialeahLocation

Past Weather in Hialeah — Graph

°F

Hialeah Temperature Yesterday

Maximum temperature yesterday: 90 °F (at 12:53 PM)
Minimum temperature yesterday: 75 °F (at 12:53 AM)
Average temperature yesterday: 82 °F

High & Low Weather Summary for the Past Weeks

 TemperatureHumidityPressure
High92 °F (May 21, 12:53 PM)97% (May 19, 2:01 AM)30.19 "Hg (May 19, 2:01 AM)
Low72 °F (May 26, 6:00 AM)40% (May 26, 12:53 PM)29.85 "Hg (May 22, 6:53 PM)
Average81 °F72%30.03 "Hg
* Reported May 15 1:53 AM — May 30 1:53 AM, Hialeah, Weather by CustomWeather, © 2016

Note: Actual official high and low records may vary slightly from our data, if they occured in-between our weather recording intervals... More about our weather records

Advertising

Hialeah Weather History for the Previous 24 Hours

Scroll right to see more
 ConditionsComfort  
Time TempWeatherWind HumidityBarometerVisibility
1:53 AM
Mon, May 30
76 °FClear.7 mph85%30.01 "Hg10 mi
12:53 AM77 °FClear.5 mph82%30.02 "Hg10 mi
11:53 PM
Sun, May 29
78 °FOvercast.6 mph82%30.04 "Hg10 mi
10:53 PM80 °FThundershowers. Passing clouds.3 mph74%30.05 "Hg10 mi
9:53 PM81 °FPassing clouds.3 mph72%30.06 "Hg10 mi
9:02 PM81 °FScattered clouds.5 mph72%30.05 "Hg10 mi
8:53 PM82 °FPartly sunny.6 mph70%30.04 "Hg10 mi
7:53 PM82 °FSunny.10 mph67%30.01 "Hg10 mi
6:53 PM82 °FPassing clouds.10 mph67%30.01 "Hg10 mi
5:53 PM84 °FScattered clouds.13 mph61%30.03 "Hg10 mi
4:53 PM88 °FPassing clouds.15 mph54%30.02 "Hg10 mi
3:53 PM89 °FPassing clouds.13 mph50%30.03 "Hg10 mi
2:53 PM89 °FPassing clouds.9 mph43%30.03 "Hg10 mi
1:53 PM89 °FSunny.14 mph46%30.05 "Hg10 mi
12:53 PM90 °FScattered clouds.9 mph47%30.06 "Hg10 mi
11:53 AM88 °FPassing clouds.3 mph50%30.07 "Hg10 mi
10:53 AM86 °FPassing clouds.5 mph57%30.07 "Hg10 mi
10:02 AM83 °FScattered clouds.No wind65%30.07 "Hg10 mi
8:53 AM82 °FSunny.3 mph72%30.07 "Hg10 mi
7:53 AM79 °FSunny.3 mph82%30.06 "Hg10 mi
6:53 AM75 °FClear.No wind90%30.04 "Hg10 mi
5:53 AM75 °FPassing clouds.No wind88%30.03 "Hg10 mi
4:53 AM75 °FOvercast.3 mph90%30.03 "Hg10 mi
3:53 AM75 °FPassing clouds.No wind88%30.03 "Hg10 mi
Weather by CustomWeather, © 2016

See weather overviewHow to use our weather pages